Location: *
(2.5500°S, 65.9667°W)
Time: 14:56:57
(UTC+00:00)

H-2A R/B - Pass Details

Date: 31 May 2022
Orbit: 734 x 836 km, 98.2° (Epoch: 03 July)

Event Time Altitude Azimuth Distance (km) Brightness Sun altitude
Rises 09:16:29 0° 43° (NE) 3,354 6.6 -16.0°
Reaches altitude 10° 09:19:38 10° 63° (ENE) 2,413 6.0 -15.3°
Maximum altitude 09:23:03 17° 103° (ESE) 1,932 4.8 -14.5°
Drops below altitude 10° 09:26:27 10° 143° (SE) 2,384 4.7 -13.7°
Sets 09:29:31 0° 162° (SSE) 3,298 5.2 -13.0°
